| time (UTC) | temp F | wind direction | speed MPH | gust MPH | rain 1hr in | rain 24hr in | rain mn in | humidity % | barometer mb |
| 20260503053306 | 33 | 0 | 0.0 | 0.0 | 0.00 | 0.00 | 0.00 | 80 | 1008.0 |
| 20260503050307 | 32 | 210 | 6.0 | 0.0 | 0.00 | 0.00 | 0.00 | 86 | 1008.0 |
| 20260503043309 | 32 | 250 | 9.0 | 0.0 | 0.00 | 0.00 | 0.00 | 86 | 1008.0 |
| 20260503040306 | 32 | 90 | 3.0 | 0.0 | 0.00 | 0.00 | 0.00 | 86 | 1008.0 |
| 20260503033307 | 32 | 200 | 2.0 | 0.0 | 0.00 | 0.00 | 0.00 | 92 | 1008.0 |
| 20260503030307 | 32 | 280 | 6.0 | 0.0 | 0.00 | 0.00 | 0.00 | 86 | 1008.0 |
| 20260503023306 | 32 | 310 | 6.0 | 0.0 | 0.00 | 0.00 | 0.00 | 86 | 1008.0 |
| 20260503020307 | 32 | 60 | 1.0 | 0.0 | 0.00 | 0.00 | 0.00 | 86 | 1007.0 |
| 20260503013308 | 33 | 300 | 10.0 | 0.0 | 0.00 | 0.00 | 0.00 | 80 | 1007.0 |
| 20260503010309 | 32 | 300 | 7.0 | 0.0 | 0.00 | 0.00 | 0.00 | 92 | 1007.0 |
| 20260503003309 | 33 | 280 | 10.0 | 0.0 | 0.00 | 0.00 | 0.00 | 86 | 1007.0 |
| 20260503000306 | 33 | 280 | 6.0 | 0.0 | 0.00 | 0.00 | 0.00 | 93 | 1007.0 |
| 20260502233310 | 33 | 270 | 6.0 | 0.0 | 0.00 | 0.00 | 0.00 | 93 | 1007.0 |
| 20260502230307 | 33 | 330 | 5.0 | 0.0 | 0.00 | 0.00 | 0.00 | 93 | 1007.0 |
| 20260502223307 | 33 | 0 | 2.0 | 0.0 | 0.00 | 0.00 | 0.00 | 93 | 1007.0 |
| 20260502220307 | 33 | 140 | 3.0 | 0.0 | 0.00 | 0.00 | 0.00 | 93 | 1007.0 |
| 20260502213308 | 33 | 310 | 3.0 | 0.0 | 0.00 | 0.00 | 0.00 | 93 | 1007.0 |
| 20260502210306 | 35 | 0 | 0.0 | 0.0 | 0.00 | 0.00 | 0.00 | 86 | 1006.0 |
| 20260502203306 | 35 | 250 | 8.0 | 0.0 | 0.00 | 0.00 | 0.00 | 86 | 1006.0 |
| 20260502200307 | 35 | 240 | 5.0 | 0.0 | 0.00 | 0.00 | 0.00 | 86 | 1006.0 |
| 20260502193309 | 35 | 260 | 5.0 | 0.0 | 0.00 | 0.00 | 0.00 | 93 | 1006.0 |
| 20260502190307 | 35 | 250 | 12.0 | 0.0 | 0.00 | 0.00 | 0.00 | 86 | 1006.0 |
| 20260502183306 | 35 | 240 | 10.0 | 0.0 | 0.00 | 0.00 | 0.00 | 86 | 1006.0 |
| 20260502180308 | 37 | 240 | 7.0 | 0.0 | 0.00 | 0.00 | 0.00 | 80 | 1006.0 |
| 20260502170308 | 37 | 270 | 8.0 | 0.0 | 0.00 | 0.00 | 0.00 | 80 | 1006.0 |
| 20260502163308 | 37 | 240 | 8.0 | 0.0 | 0.00 | 0.00 | 0.00 | 86 | 1006.0 |
| 20260502160309 | 39 | 240 | 8.0 | 0.0 | 0.00 | 0.00 | 0.00 | 80 | 1006.0 |
| 20260502150309 | 37 | 250 | 10.0 | 23.0 | 0.00 | 0.00 | 0.00 | 86 | 1006.0 |
| 20260502130309 | 37 | 250 | 15.0 | 26.0 | 0.00 | 0.00 | 0.00 | 86 | 1006.0 |
| 20260502123308 | 39 | 240 | 16.0 | 30.0 | 0.00 | 0.00 | 0.00 | 80 | 1006.0 |
| 20260502120309 | 39 | 300 | 8.0 | 0.0 | 0.00 | 0.00 | 0.00 | 80 | 1006.0 |
| 20260502113310 | 39 | 290 | 13.0 | 0.0 | 0.00 | 0.00 | 0.00 | 80 | 1005.0 |
| 20260502110309 | 42 | 270 | 13.0 | 0.0 | 0.00 | 0.00 | 0.00 | 60 | 1005.0 |
| 20260502103308 | 42 | 260 | 17.0 | 30.0 | 0.00 | 0.00 | 0.00 | 60 | 1005.0 |
| 20260502100308 | 42 | 260 | 17.0 | 30.0 | 0.00 | 0.00 | 0.00 | 60 | 1005.0 |
| 20260502090308 | 41 | 280 | 9.0 | 0.0 | 0.00 | 0.00 | 0.00 | 70 | 1005.0 |
| 20260502070309 | 41 | 290 | 10.0 | 0.0 | 0.00 | 0.00 | 0.00 | 75 | 1003.0 |
| 20260502063308 | 41 | 280 | 10.0 | 0.0 | 0.00 | 0.00 | 0.00 | 75 | 1004.0 |
| 20260502060308 | 41 | 280 | 13.0 | 0.0 | 0.00 | 0.00 | 0.00 | 75 | 1003.0 |